This demonstration page uses our WeatherBlox Daily Observations layout. Learn more.

Left ArrowRight Arrow

31.31129, -92.44514

Hourly Observations for August 8, 2018

Temp ( °F °C ) Dew Point ( °F °C ) Humidity (%) Winds ( mph kmh ) Pressure ( in mb ) Visibility ( mi km ) Precip ( " mm )
12:53 am 00:53 Clear 72 22.2 71 21.7 97 97 WNW 3 6 30.04 1017 8 13 0.00 0.00
1:53 am 01:53 Clear 71 21.7 70 21.1 96 96 Calm 30.03 1017 8 13 0.00 0.00
2:53 am 02:53 Clear 71 21.7 70 21.1 96 96 Calm 30.03 1017 10 16 0.00 0.00
3:53 am 03:53 Clear 71 21.7 70 21.1 96 96 Calm 30.02 1017 10 16 0.00 0.00
4:53 am 04:53 Clear 70 21.1 69 20.6 97 97 SSE 3 6 30.03 1017 10 16 0.00 0.00
5:53 am 05:53 Clear 70 21.1 68 20 93 93 Calm 30.03 1017 10 16 0.00 0.00
6:53 am 06:53 Sunny 70 21.1 68 20 93 93 Calm 30.04 1017 10 16 0.00 0.00
7:53 am 07:53 Sunny 74 23.3 71 21.7 91 91 Calm 30.05 1018 10 16 0.00 0.00
8:53 am 08:53 Sunny 79 26.1 72 22.2 79 79 Calm 30.07 1018 10 16 0.00 0.00
9:53 am 09:53 Sunny 84 28.9 75 23.9 74 74 WSW 3 6 30.07 1018 10 16 0.00 0.00
10:53 am 10:53 Mostly Sunny 87 30.6 74 23.3 65 65 VRB 3 6 30.07 1018 10 16 0.00 0.00
11:53 am 11:53 Sunny 91 32.8 73 22.8 56 56 SW 8 13 30.06 1018 10 16 0.00 0.00
12:53 pm 12:53 Sunny 93 33.9 73 22.8 52 52 SW 7 11 30.05 1018 10 16 0.00 0.00
1:53 pm 13:53 Sunny 94 34.4 71 21.7 48 48 SSW 6 9 30.03 1017 10 16 0.00 0.00
2:53 pm 14:53 Mostly Sunny 95 35 72 22.2 47 47 VRB 6 9 30.00 1016 10 16 0.00 0.00
3:53 pm 15:53 Mostly Sunny 94 34.4 69 20.6 44 44 S 3 6 29.97 1015 10 16 0.00 0.00
4:53 pm 16:53 Sunny 93 33.9 72 22.2 50 50 SW 6 9 29.97 1015 10 16 0.00 0.00
5:13 pm 17:13 Sunny with Nearby Thunderstorms 90 32.2 72 22.2 56 56 SW 16 26 29.97 1015 10 16 0.00 0.00
5:28 pm 17:28 Sunny with Thunderstorms 84 28.9 70 21.1 63 63 SSW 13 20 29.97 1015 10 16 0.00 0.00
5:53 pm 17:53 Partly Cloudy with Nearby Thunderstorms 83 28.3 68 20 61 61 S 7 11 29.98 1015 10 16 0.00 0.00
6:10 pm 18:10 Mostly Sunny 84 28.9 66 18.9 55 55 ESE 10 17 29.97 1015 10 16 0.00 0.00
6:53 pm 18:53 Sunny 83 28.3 70 21.1 65 65 SSE 12 19 29.98 1015 10 16 0.00 0.03
7:53 pm 19:53 Sunny 80 26.7 73 22.8 79 79 S 5 7 29.99 1016 10 16 0.00 0.03
8:53 pm 20:53 Clear 78 25.6 73 22.8 85 85 SE 5 7 29.98 1015 10 16 0.00 0.00
9:53 pm 21:53 Clear 76 24.4 71 21.7 85 85 SSE 6 9 30.00 1016 10 16 0.00 0.00
10:53 pm 22:53 Clear 76 24.4 71 21.7 85 85 SSE 6 9 30.02 1017 10 16 0.00 0.00
11:53 pm 23:53 Clear 75 23.9 72 22.2 90 90 S 5 7 30.02 1017 10 16 0.00 0.00

Powered by AerisWeather